When you browse on this site, cookies collect data to enhance your experience and personalize the content and advertising you see.
Visit our Privacy Policy to learn more. By continuing to use the site, you agree to this use of cookies and data.
  • In France
  • List of Countries
  • For 7 days
  • Water Temperature
  • Satellite Maps
  • Weather Map
  • Weather Widgets
  • user-avatar
    Login

    Hourly Weather Gjirokaster

    Today, 27 June, Thursday

    Time Temperature Precipitation Wind Pressure Humidity
    00:00 +16°C° 0 mm 2 mps 655 mmHg 70%
    01:00 +16°C° 0 mm 2 mps 654 mmHg 71%
    02:00 +16°C° 0 mm 2 mps 654 mmHg 71%
    03:00 +16°C° 0 mm 2 mps 654 mmHg 71%
    04:00 +15°C° 0 mm 2 mps 653 mmHg 72%
    05:00 +17°C° 0 mm 2 mps 654 mmHg 68%
    06:00 +18°C° 0 mm 2 mps 655 mmHg 64%
    07:00 +21°C° 0 mm 1 mps 655 mmHg 61%
    08:00 +22°C° 0 mm 1 mps 656 mmHg 55%
    09:00 +23°C° 0 mm 1 mps 656 mmHg 49%
    10:00 +25°C° 0 mm 1 mps 656 mmHg 44%
    11:00 +25°C° 0 mm 1 mps 656 mmHg 43%
    12:00 +25°C° 0 mm 2 mps 656 mmHg 42%
    13:00 +26°C° 0 mm 2 mps 656 mmHg 41%
    14:00 +26°C° 0 mm 2 mps 655 mmHg 43%
    15:00 +25°C° 0 mm 2 mps 655 mmHg 45%
    16:00 +25°C° 0 mm 3 mps 654 mmHg 47%
    17:00 +23°C° 0 mm 2 mps 654 mmHg 53%
    18:00 +21°C° 0 mm 2 mps 653 mmHg 59%
    19:00 +19°C° 0 mm 2 mps 652 mmHg 66%
    20:00 +20°C° 0 mm 1 mps 652 mmHg 66%
    21:00 +19°C° 0 mm 1 mps 652 mmHg 67%
    22:00 +18°C° 0 mm 1 mps 652 mmHg 67%
    23:00 +18°C° 0 mm 1 mps 652 mmHg 68%

    Tomorrow, 28 June, Friday

    Time Temperature Precipitation Wind Pressure Humidity
    00:00 +18°C° 0 mm 1 mps 652 mmHg 68%
    01:00 +16°C° 0 mm 1 mps 652 mmHg 69%
    02:00 +16°C° 0 mm 1 mps 651 mmHg 69%
    03:00 +16°C° 0 mm 1 mps 651 mmHg 70%
    04:00 +16°C° 0 mm 1 mps 650 mmHg 70%
    05:00 +18°C° 0 mm 1 mps 651 mmHg 66%
    06:00 +20°C° 0 mm 1 mps 651 mmHg 61%
    07:00 +22°C° 0 mm 1 mps 652 mmHg 57%
    08:00 +23°C° 0 mm 1 mps 652 mmHg 50%
    09:00 +25°C° 0 mm 1 mps 653 mmHg 43%
    10:00 +26°C° 0 mm 1 mps 653 mmHg 37%
    11:00 +27°C° 0 mm 2 mps 653 mmHg 37%
    12:00 +27°C° 0 mm 2 mps 653 mmHg 38%
    13:00 +27°C° 0 mm 2 mps 653 mmHg 38%
    14:00 +27°C° 0 mm 3 mps 652 mmHg 41%
    15:00 +27°C° 0 mm 3 mps 652 mmHg 43%
    16:00 +26°C° 0 mm 3 mps 652 mmHg 45%
    17:00 +25°C° 0 mm 3 mps 652 mmHg 52%
    18:00 +23°C° 0 mm 2 mps 651 mmHg 59%
    19:00 +20°C° 0 mm 2 mps 651 mmHg 66%
    20:00 +19°C° 0 mm 2 mps 651 mmHg 65%
    21:00 +19°C° 0 mm 2 mps 651 mmHg 65%
    22:00 +18°C° 0 mm 2 mps 651 mmHg 65%
    23:00 +17°C° 0 mm 2 mps 651 mmHg 68%

    Day after tomorrow, 29 June, Saturday

    Time Temperature Precipitation Wind Pressure Humidity
    00:00 +17°C° 0 mm 2 mps 651 mmHg 70%
    01:00 +16°C° 0 mm 2 mps 650 mmHg 72%
    02:00 +16°C° 0 mm 2 mps 650 mmHg 72%
    03:00 +15°C° 0 mm 2 mps 650 mmHg 72%
    04:00 +15°C° 0 mm 2 mps 650 mmHg 72%
    05:00 +16°C° 0 mm 2 mps 651 mmHg 66%
    06:00 +18°C° 0 mm 2 mps 651 mmHg 60%
    07:00 +19°C° 0 mm 2 mps 652 mmHg 54%
    08:00 +20°C° 0 mm 2 mps 652 mmHg 48%
    09:00 +21°C° 0 mm 2 mps 653 mmHg 43%
    10:00 +24°C° 0 mm 1 mps 654 mmHg 38%
    11:00 +24°C° 0 mm 2 mps 654 mmHg 39%
    12:00 +25°C° 0 mm 2 mps 654 mmHg 40%
    13:00 +25°C° 0 mm 2 mps 654 mmHg 42%
    14:00 +25°C° 0 mm 2 mps 654 mmHg 43%
    15:00 +25°C° 0 mm 2 mps 654 mmHg 44%
    16:00 +25°C° 0 mm 2 mps 654 mmHg 45%
    17:00 +23°C° 0 mm 2 mps 653 mmHg 51%
    18:00 +22°C° 0 mm 1 mps 653 mmHg 56%
    19:00 +20°C° 0 mm 1 mps 653 mmHg 62%
    20:00 +19°C° 0 mm 1 mps 653 mmHg 61%
    21:00 +18°C° 0 mm 1 mps 653 mmHg 59%
    22:00 +16°C° 0 mm 2 mps 653 mmHg 58%
    23:00 +16°C° 0 mm 2 mps 653 mmHg 57%

    30 June, Sunday

    Time Temperature Precipitation Wind Pressure Humidity
    00:00 +15°C° 0 mm 2 mps 653 mmHg 57%
    01:00 +15°C° 0 mm 2 mps 653 mmHg 56%
    02:00 +14°C° 0 mm 2 mps 653 mmHg 56%
    03:00 +14°C° 0 mm 2 mps 652 mmHg 56%
    04:00 +13°C° 0 mm 2 mps 652 mmHg 56%
    05:00 +15°C° 0 mm 2 mps 653 mmHg 53%
    06:00 +16°C° 0 mm 2 mps 654 mmHg 51%
    07:00 +19°C° 0 mm 1 mps 654 mmHg 48%
    08:00 +21°C° 0 mm 1 mps 655 mmHg 44%
    09:00 +22°C° 0 mm 1 mps 656 mmHg 40%
    10:00 +24°C° 0 mm 1 mps 656 mmHg 35%
    11:00 +24°C° 0 mm 1 mps 656 mmHg 36%
    12:00 +24°C° 0 mm 2 mps 656 mmHg 36%
    13:00 +25°C° 0 mm 2 mps 656 mmHg 36%
    14:00 +24°C° 0 mm 2 mps 656 mmHg 40%
    15:00 +24°C° 0 mm 3 mps 656 mmHg 43%
    16:00 +24°C° 0 mm 3 mps 656 mmHg 47%
    17:00 +21°C° 0 mm 2 mps 655 mmHg 56%
    18:00 +19°C° 0 mm 2 mps 655 mmHg 65%
    19:00 +18°C° 0 mm 1 mps 655 mmHg 73%
    20:00 +18°C° 0 mm 1 mps 655 mmHg 72%
    21:00 +16°C° 0 mm 1 mps 655 mmHg 71%
    22:00 +15°C° 0 mm 1 mps 655 mmHg 70%
    23:00 +15°C° 0 mm 1 mps 655 mmHg 69%

    1 July, Monday

    Time Temperature Precipitation Wind Pressure Humidity
    00:00 +15°C° 0 mm 1 mps 655 mmHg 67%
    01:00 +14°C° 0 mm 2 mps 655 mmHg 65%
    02:00 +14°C° 0 mm 1 mps 654 mmHg 67%
    03:00 +14°C° 0 mm 1 mps 654 mmHg 68%
    04:00 +14°C° 0 mm 1 mps 654 mmHg 69%
    05:00 +15°C° 0 mm 1 mps 655 mmHg 65%
    06:00 +18°C° 0 mm 1 mps 655 mmHg 61%
    07:00 +19°C° 0 mm 1 mps 656 mmHg 57%
    08:00 +21°C° 0 mm 1 mps 656 mmHg 52%
    09:00 +22°C° 0 mm 1 mps 657 mmHg 47%
    10:00 +24°C° 0 mm 1 mps 657 mmHg 42%
    11:00 +24°C° 0 mm 1 mps 657 mmHg 41%
    12:00 +25°C° 0 mm 1 mps 657 mmHg 40%
    13:00 +25°C° 0 mm 2 mps 657 mmHg 40%
    14:00 +25°C° 0 mm 2 mps 656 mmHg 43%
    15:00 +24°C° 0 mm 2 mps 656 mmHg 46%
    16:00 +24°C° 0 mm 2 mps 656 mmHg 49%
    17:00 +21°C° 0 mm 2 mps 655 mmHg 55%
    18:00 +21°C° 0 mm 1 mps 655 mmHg 62%
    19:00 +19°C° 0 mm 1 mps 654 mmHg 69%
    20:00 +18°C° 0 mm 1 mps 654 mmHg 70%
    21:00 +18°C° 0 mm 1 mps 654 mmHg 70%
    22:00 +16°C° 0 mm 1 mps 654 mmHg 71%
    23:00 +16°C° 0 mm 1 mps 654 mmHg 71%

    2 July, Tuesday

    Time Temperature Precipitation Wind Pressure Humidity
    00:00 +15°C° 0 mm 1 mps 654 mmHg 71%
    01:00 +15°C° 0 mm 1 mps 653 mmHg 71%
    02:00 +15°C° 0 mm 1 mps 653 mmHg 71%
    03:00 +15°C° 0 mm 1 mps 653 mmHg 71%
    04:00 +14°C° 0 mm 1 mps 653 mmHg 70%
    05:00 +16°C° 0 mm 1 mps 653 mmHg 65%
    06:00 +19°C° 0 mm 1 mps 654 mmHg 60%
    07:00 +20°C° 0 mm 1 mps 654 mmHg 55%
    08:00 +22°C° 0 mm 1 mps 654 mmHg 49%
    09:00 +24°C° 0 mm 1 mps 655 mmHg 44%
    10:00 +25°C° 0 mm 1 mps 655 mmHg 39%
    11:00 +26°C° 0 mm 1 mps 655 mmHg 38%
    12:00 +26°C° 0 mm 2 mps 655 mmHg 37%
    13:00 +27°C° 0 mm 2 mps 654 mmHg 36%
    14:00 +26°C° 0 mm 2 mps 654 mmHg 40%
    15:00 +25°C° 0 mm 3 mps 654 mmHg 43%
    16:00 +25°C° 0 mm 3 mps 653 mmHg 47%
    17:00 +23°C° 0 mm 2 mps 653 mmHg 54%
    18:00 +20°C° 0 mm 2 mps 653 mmHg 62%
    19:00 +20°C° 0 mm 1 mps 652 mmHg 69%
    20:00 +19°C° 0 mm 1 mps 652 mmHg 71%
    21:00 +18°C° 0 mm 1 mps 652 mmHg 72%
    22:00 +18°C° 0 mm 1 mps 652 mmHg 74%
    23:00 +18°C° 0 mm 1 mps 652 mmHg 75%
    Show more